1484928000.88,2822,8.25,74132.3,-7.27,-10.75,-10.53,0,*6C
1484928002.14,2823,8.25,74132.8,-7.25,-10.67,-10.63,0,*6F
1484928003.4,2824,8.25,74132.3,-7.27,-10.75,-10.53,0,*6A
1484928004.63,2825,8.25,74134.8,-7.25,-10.67,-10.53,0,*6A
1484928005.89,2826,8.25,74132.0,-7.27,-10.67,-10.53,0,*6B
1484928007.13,2827,8.25,74138.5,-7.25,-10.67,-10.53,0,*68
1484928008.39,2828,8.25,74134.5,-7.27,-10.63,-10.53,0,*61
1484928009.64,2829,8.25,74134.5,-7.27,-10.75,-10.53,0,*67
1484928010.84,2830,8.25,74136.0,-7.25,-10.53,-10.53,0,*69
1484928012.1,2831,8.25,74142.0,-7.27,-10.63,-10.49,0,*62
1484928013.3,2832,8.25,74136.3,-7.25,-10.53,-10.49,0,*60
1484928014.53,2833,8.25,74136.0,-7.25,-10.63,-10.53,0,*69
1484928015.73,2834,8.25,74136.0,-7.25,-10.53,-10.49,0,*66
1484928016.93,2835,8.25,74140.0,-7.25,-10.53,-10.49,0,*67
1484928018.16,2836,8.25,74140.5,-7.25,-10.63,-10.49,0,*67
1484928019.43,2837,8.25,74136.0,-7.25,-10.67,-10.63,0,*6A
1484928020.65,2838,8.25,74136.3,-7.25,-10.85,-10.79,0,*62
1484928021.92,2839,8.25,74140.5,-7.25,-10.79,-10.67,0,*6F
1484928023.14,2840,8.25,74144.8,-7.27,-10.53,-10.53,0,*6C
1484928024.34,2841,8.25,74140.5,-7.25,-10.53,-10.49,0,*64
1484928025.54,2842,8.25,74140.0,-7.25,-10.53,-10.35,0,*6C
1484928026.77,2843,8.25,74140.0,-7.27,-10.53,-10.35,0,*6F
1484928027.97,2844,8.25,74142.8,-7.25,-10.53,-10.49,0,*61
1484928029.17,2845,8.25,74136.3,-7.25,-10.53,-10.49,0,*60
1484928030.4,2846,8.25,74140.3,-7.25,-10.53,-10.41,0,*6B
1484928031.66,2847,8.25,74132.8,-7.27,-10.53,-10.41,0,*68
1484928032.89,2848,8.25,74136.0,-7.25,-10.63,-10.49,0,*6E
1484928034.14,2849,8.25,74136.5,-7.25,-10.79,-10.63,0,*6C
1484928035.38,2850,8.25,74132.8,-7.25,-10.67,-10.53,0,*68
1484928036.61,2851,8.25,74138.0,-7.25,-10.53,-10.41,0,*6D
1484928037.85,2852,8.25,74134.5,-7.25,-10.41,-10.35,0,*6E
1484928039.08,2853,8.25,74136.0,-7.27,-10.49,-10.35,0,*65
1484928040.29,2854,8.25,74134.5,-7.25,-10.49,-10.27,0,*63
1484928041.53,2855,8.25,74134.5,-7.25,-10.41,-10.35,0,*69
1484928042.76,2856,8.25,74134.8,-7.25,-10.49,-10.41,0,*61
1484928044.02,2857,8.25,74136.3,-7.27,-10.63,-10.49,0,*62
1484928045.25,2858,8.25,74134.5,-7.25,-10.63,-10.53,0,*64
1484928046.45,2859,8.25,74132.0,-7.25,-10.53,-10.53,0,*66
1484928047.68,2860,8.25,74134.0,-7.25,-10.63,-10.53,0,*6F
1484928048.88,2861,8.25,74138.3,-7.25,-10.53,-10.53,0,*6D
1484928050.14,2862,8.25,74138.3,-7.25,-10.67,-10.63,0,*6A
1484928051.38,2863,8.25,74132.5,-7.25,-10.67,-10.53,0,*68
1484928052.62,2864,8.25,74136.0,-7.25,-10.67,-10.53,0,*6F
1484928053.82,2865,8.25,74138.3,-7.25,-10.53,-10.53,0,*69
1484928055.08,2866,8.25,74138.3,-7.25,-10.67,-10.63,0,*6E
1484928056.33,2867,8.25,74140.5,-7.25,-10.75,-10.63,0,*6C
1484928057.6,2868,8.25,74136.0,-7.25,-10.75,-10.67,0,*67
1484928058.83,2869,8.25,74138.8,-7.25,-10.75,-10.53,0,*61
1484928060.09,2870,8.25,74138.5,-7.25,-10.67,-10.63,0,*69
1484928061.32,2871,8.25,74136.8,-7.25,-10.75,-10.53,0,*68
1484928062.55,2872,8.25,74134.5,-7.25,-10.75,-10.53,0,*6B
1484928063.83,2873,8.25,74140.8,-7.27,-10.75,-10.63,0,*6B
1484928065.09,2874,8.25,74134.0,-7.25,-10.75,-10.63,0,*6E
1484928066.32,2875,8.25,74136.5,-7.25,-10.75,-10.53,0,*6C
1484928067.61,2876,8.25,74136.8,-7.27,-10.67,-10.63,0,*6D
1484928068.87,2877,8.25,74136.3,-7.27,-10.67,-10.49,0,*64
1484928070.12,2878,8.25,74144.0,-7.27,-10.53,-10.41,0,*64
1484928071.37,2879,8.25,74138.0,-7.27,-10.53,-10.41,0,*65
1484928072.6,2880,8.25,74140.5,-7.27,-10.53,-10.49,0,*6B
1484928073.8,2881,8.25,74140.3,-7.25,-10.53,-10.49,0,*68
1484928075.05,2882,8.25,74140.8,-7.27,-10.53,-10.41,0,*61
1484928076.28,2883,8.25,74140.3,-7.25,-10.53,-10.41,0,*62
1484928077.51,2884,8.25,74142.8,-7.25,-10.53,-10.41,0,*65
1484928078.72,2885,8.25,74142.5,-7.25,-10.35,-10.27,0,*64
1484928079.92,2886,8.25,74140.0,-7.25,-10.23,-10.09,0,*6C
1484928081.12,2887,8.25,74138.3,-7.25,-10.09,-9.97,0,*5A
1484928082.31,2888,8.25,74138.0,-7.25,-10.01,-9.89,0,*52
1484928083.53,2889,8.25,74136.8,-7.27,-9.79,-9.79,0,*69
1484928084.72,2890,8.25,74138.8,-7.25,-9.79,-9.79,0,*63
1484928085.92,2891,8.25,74138.3,-7.23,-9.75,-9.75,0,*64
1484928087.11,2892,8.25,74142.5,-7.23,-9.79,-9.79,0,*67
1484928088.3,2893,8.25,74134.8,-7.23,-9.79,-9.75,0,*6A
1484928089.52,2894,8.25,74138.5,-7.25,-9.83,-9.79,0,*62
1484928090.7,2895,8.25,74140.3,-7.25,-9.89,-9.89,0,*66
1484928091.91,2896,8.25,74138.5,-7.25,-10.35,-10.23,0,*62
1484928093.14,2897,8.25,74138.8,-7.25,-10.53,-10.41,0,*67
1484928094.37,2898,8.25,74142.5,-7.25,-10.63,-10.49,0,*63
1484928095.6,2899,8.25,74140.8,-7.25,-10.63,-10.49,0,*62
1484928096.84,2900,8.25,74142.5,-7.25,-10.67,-10.53,0,*6C
1484928098.1,2901,8.25,74142.0,-7.25,-10.75,-10.63,0,*6D
1484928099.36,2902,8.25,74138.8,-7.25,-10.67,-10.63,0,*6D
1484928100.6,2903,8.25,74138.3,-7.25,-10.67,-10.53,0,*6F
1484928101.8,2904,8.25,74140.8,-7.25,-10.53,-10.53,0,*6F
1484928103.03,2905,8.25,74146.5,-7.25,-10.49,-10.41,0,*66
1484928104.24,2906,8.25,74140.8,-7.25,-10.49,-10.35,0,*66
1484928105.48,2907,8.25,74146.0,-7.27,-10.35,-10.27,0,*6D
1484928106.71,2908,8.25,74142.8,-7.25,-10.41,-10.27,0,*63
1484928107.92,2909,8.25,74140.5,-7.25,-10.49,-10.27,0,*6A
1484928109.16,2910,8.25,74140.8,-7.25,-10.41,-10.35,0,*69
1484928110.36,2911,8.25,74136.8,-7.25,-10.49,-10.27,0,*63
1484928111.57,2912,8.25,74142.0,-7.25,-10.49,-10.27,0,*60
1484928112.83,2913,8.25,74140.0,-7.27,-10.41,-10.15,0,*6A
1484928114.04,2914,8.25,74138.5,-7.25,-10.27,-10.09,0,*62
1484928115.26,2915,8.25,74136.5,-7.27,-10.15,-9.97,0,*5F
1484928116.49,2916,8.25,74142.3,-7.27,-10.15,-9.97,0,*5C
1484928117.74,2917,8.25,74140.3,-7.27,-10.15,-9.83,0,*58
1484928118.96,2918,8.25,74140.3,-7.27,-10.01,-9.79,0,*57
1484928120.17,2919,8.25,74140.5,-7.27,-10.09,-9.79,0,*5E
1484928121.39,2920,8.25,74140.5,-7.25,-10.09,-9.83,0,*53
1484928122.58,2921,8.25,74142.5,-7.25,-10.09,-9.89,0,*58
1484928123.77,2922,8.25,74142.0,-7.25,-10.09,-9.89,0,*5B
1484928124.96,2923,8.25,74138.8,-7.25,-10.09,-9.89,0,*5A
1484928126.15,2924,8.25,74138.3,-7.25,-10.01,-9.89,0,*55
1484928127.34,2925,8.25,74136.3,-7.25,-10.09,-9.89,0,*5C
1484928128.56,2926,8.25,74138.8,-7.27,-10.09,-9.97,0,*52
1484928129.75,2927,8.25,74136.8,-7.25,-10.09,-9.89,0,*5E
1484928130.94,2928,8.25,74138.5,-7.25,-10.09,-9.97,0,*5E
1484928132.13,2929,8.25,74142.8,-7.25,-10.01,-9.89,0,*58
1484928133.34,2930,8.25,74142.0,-7.27,-10.09,-9.97,0,*55
1484928134.56,2931,8.25,74142.8,-7.25,-10.15,-10.01,0,*6C
1484928135.76,2932,8.25,74140.0,-7.25,-10.23,-10.09,0,*62
1484928136.97,2933,8.25,74140.5,-7.25,-10.35,-10.09,0,*64
1484928138.17,2934,8.25,74140.3,-7.25,-10.35,-10.09,0,*63
1484928139.38,2935,8.25,74146.5,-7.25,-10.49,-10.23,0,*61
1484928140.61,2936,8.25,74144.8,-7.27,-10.49,-10.27,0,*64
1484928141.87,2937,8.25,74138.0,-7.27,-10.41,-10.15,0,*6C
1484928143.11,2938,8.25,74138.5,-7.27,-10.35,-10.15,0,*60
1484928144.31,2939,8.25,74138.3,-7.25,-10.15,-9.89,0,*5C
1484928145.52,2940,8.25,74138.0,-7.27,-9.97,-9.79,0,*6D
1484928146.73,2941,8.25,74134.3,-7.27,-9.89,-9.79,0,*63
1484928147.97,2942,8.25,74136.8,-7.27,-9.83,-9.79,0,*6A
1484928149.16,2943,8.25,74134.5,-7.25,-9.79,-9.71,0,*64
1484928150.38,2944,8.25,74134.3,-7.25,-9.83,-9.67,0,*61
1484928151.59,2945,8.25,74138.5,-7.25,-9.83,-9.67,0,*60
1484928152.83,2946,8.25,74140.0,-7.27,-9.83,-9.71,0,*66
1484928154.01,2947,8.25,74140.5,-7.25,-9.89,-9.71,0,*6F
1484928155.23,2948,8.25,74138.5,-7.27,-9.97,-9.79,0,*65
1484928156.44,2949,8.25,74138.5,-7.27,-9.97,-9.79,0,*64
1484928157.66,2950,8.25,74138.8,-7.27,-10.01,-9.79,0,*5B
1484928158.87,2951,8.25,74132.0,-7.27,-9.97,-9.79,0,*6D
1484928160.11,2952,8.25,74138.0,-7.27,-9.83,-9.67,0,*64
1484928161.35,2953,8.25,74134.0,-7.27,-9.79,-9.57,0,*63
1484928162.54,2954,8.25,74136.5,-7.25,-9.79,-9.67,0,*65
1484928163.75,2955,8.25,74134.3,-7.27,-9.89,-9.79,0,*66
1484928164.99,2956,8.25,74136.5,-7.27,-10.15,-10.01,0,*6F
1484928166.19,2957,8.25,74138.5,-7.25,-10.27,-10.09,0,*65
1484928167.43,2958,8.25,74132.0,-7.27,-10.35,-10.23,0,*63
1484928168.66,2959,8.25,74134.5,-7.27,-10.49,-10.35,0,*6E
1484928169.92,2960,8.25,74134.0,-7.27,-10.63,-10.53,0,*6C
1484928171.15,2961,8.25,74136.0,-7.25,-10.63,-10.53,0,*6F
1484928172.4,2962,8.25,74136.8,-7.27,-10.75,-10.53,0,*69
1484928173.69,2963,8.25,74136.8,-7.27,-10.75,-10.63,0,*6B
1484928174.91,2964,8.25,74138.0,-7.27,-10.53,-10.53,0,*6B
1484928176.16,2965,8.25,74136.0,-7.27,-10.53,-10.41,0,*69
1484928177.4,2966,8.25,74136.5,-7.27,-10.35,-10.27,0,*6A
1484928178.63,2967,8.25,74136.3,-7.27,-10.27,-10.23,0,*6C
1484928179.89,2968,8.25,74136.8,-7.27,-10.41,-10.27,0,*67
1484928181.15,2969,8.25,74136.8,-7.27,-10.63,-10.49,0,*6E
1484928182.43,2970,8.25,74136.0,-7.27,-10.63,-10.63,0,*6E
1484928183.69,2971,8.25,74138.5,-7.27,-10.67,-10.53,0,*68
1484928184.98,2972,8.25,74138.0,-7.27,-10.63,-10.63,0,*6C
1484928186.26,2973,8.25,74138.5,-7.27,-10.67,-10.63,0,*69
1484928187.49,2974,8.25,74134.5,-7.27,-10.53,-10.53,0,*6A
1484928188.74,2975,8.25,74134.3,-7.27,-10.53,-10.41,0,*68
1484928189.96,2976,8.25,74142.8,-7.27,-10.53,-10.49,0,*63
1484928191.19,2977,8.25,74136.8,-7.27,-10.53,-10.49,0,*62
1484928192.47,2978,8.25,74142.8,-7.27,-10.75,-10.67,0,*65
1484928193.73,2979,8.25,74140.5,-7.25,-10.75,-10.63,0,*62
1484928194.99,2980,8.25,74144.0,-7.27,-10.63,-10.53,0,*62
1484928196.21,2981,8.25,74142.5,-7.27,-10.53,-10.53,0,*60
1484928197.46,2982,8.25,74140.0,-7.27,-10.75,-10.53,0,*67
1484928198.72,2983,8.25,74142.3,-7.27,-10.75,-10.53,0,*66
1484928200.0,2984,8.25,74140.0,-7.27,-10.75,-10.63,0,*62
1484928201.28,2985,8.25,74140.3,-7.27,-10.75,-10.63,0,*63
1484928202.57,2986,8.25,74140.0,-7.27,-10.67,-10.63,0,*63
1484928203.83,2987,8.25,74142.8,-7.25,-10.79,-10.63,0,*6F
1484928205.08,2988,8.25,74140.5,-7.27,-10.75,-10.53,0,*6D
1484928206.34,2989,8.25,74140.0,-7.27,-10.63,-10.49,0,*60
1484928207.59,2990,8.25,74140.5,-7.31,-10.63,-10.57,0,*60
1484928208.8,2991,8.25,74142.0,-7.29,-10.57,-10.31,0,*6F
1484928210.0,2992,8.25,74142.3,-7.29,-10.45,-10.31,0,*6F
1484928211.22,2993,8.25,74142.0,-7.29,-10.53,-10.41,0,*6E
1484928212.45,2994,8.25,74140.0,-7.31,-10.49,-10.45,0,*6F
1484928213.65,2995,8.25,74138.3,-7.29,-10.45,-10.31,0,*68
1484928214.84,2996,8.31,74140.0,-7.29,-10.45,-10.31,0,*6B
1484928216.08,2997,8.25,74132.8,-7.27,-10.35,-10.23,0,*60
1484928217.28,2998,8.25,74136.8,-7.29,-10.53,-10.27,0,*65
1484928218.51,2999,8.25,74136.5,-7.27,-10.27,-10.27,0,*69
1484928219.74,3000,8.25,74136.3,-7.29,-10.41,-10.19,0,*62
1484928220.94,3001,8.25,74140.3,-7.29,-10.31,-10.15,0,*68
1484928222.14,3002,8.25,74142.3,-7.29,-10.23,-10.05,0,*69
1484928223.35,3003,8.25,74136.3,-7.31,-9.97,-9.89,0,*6A
1484928224.53,3004,8.25,74138.8,-7.29,-9.89,-9.89,0,*6B
1484928225.74,3005,8.25,74142.3,-7.29,-9.93,-9.83,0,*6B
1484928226.92,3006,8.25,74138.3,-7.29,-10.05,-9.93,0,*5E
1484928228.13,3007,8.25,74136.3,-7.29,-10.27,-10.27,0,*68
1484928229.33,3008,8.25,74132.0,-7.29,-10.31,-10.31,0,*67
1484928230.55,3009,8.25,74134.8,-7.29,-10.53,-10.41,0,*65
1484928231.78,3010,8.25,74134.5,-7.29,-10.71,-10.57,0,*6A
1484928233.04,3011,8.25,74138.5,-7.29,-10.71,-10.67,0,*68
1484928234.32,3012,8.25,74134.8,-7.31,-10.75,-10.63,0,*62
1484928235.57,3013,8.25,74132.3,-7.29,-10.71,-10.67,0,*6A
1484928236.8,3014,8.25,74132.5,-7.29,-10.75,-10.57,0,*6A
1484928238.02,3015,8.25,74136.0,-7.29,-10.75,-10.53,0,*6F
1484928239.3,3016,8.25,74134.3,-7.31,-10.75,-10.63,0,*66
1484928240.56,3017,8.25,74136.5,-7.31,-10.63,-10.49,0,*68
1484928241.75,3018,8.25,74138.0,-7.29,-10.53,-10.45,0,*61
1484928242.98,3019,8.25,74138.3,-7.29,-10.53,-10.41,0,*64
1484928244.21,3020,8.25,74136.5,-7.31,-10.57,-10.45,0,*67
1484928245.43,3021,8.25,74136.5,-7.29,-10.71,-10.53,0,*6C
1484928246.69,3022,8.25,74142.8,-7.31,-10.71,-10.57,0,*62
1484928247.89,3023,8.25,74138.8,-7.29,-10.57,-10.53,0,*6A
1484928249.14,3024,8.25,74138.3,-7.31,-10.71,-10.57,0,*64
1484928250.37,3025,8.25,74142.0,-7.29,-10.67,-10.57,0,*6B
1484928251.6,3026,8.25,74138.5,-7.31,-10.85,-10.57,0,*6D
1484928252.83,3027,8.25,74136.3,-7.29,-10.63,-10.45,0,*6E
1484928254.06,3028,8.25,74140.5,-7.31,-10.45,-10.35,0,*6B
1484928255.29,3029,8.25,74136.8,-7.29,-10.45,-10.41,0,*60
1484928256.48,3030,8.25,74138.8,-7.29,-10.53,-10.45,0,*6B
1484928257.68,3031,8.25,74138.8,-7.29,-10.57,-10.53,0,*69
1484928258.91,3032,8.25,74138.8,-7.29,-10.67,-10.53,0,*69
1484928260.14,3033,8.25,74138.5,-7.29,-10.67,-10.53,0,*68
1484928261.4,3034,8.25,74136.0,-7.31,-10.71,-10.57,0,*65
1484928262.63,3035,8.25,74136.5,-7.29,-10.67,-10.53,0,*6E
1484928263.85,3036,8.25,74134.0,-7.29,-10.79,-10.57,0,*66
1484928265.1,3037,8.25,74132.8,-7.31,-10.85,-10.63,0,*6A
1484928266.36,3038,8.25,74132.8,-7.31,-10.63,-10.57,0,*6A
1484928267.56,3039,8.25,74134.8,-7.29,-10.45,-10.31,0,*66
1484928268.76,3040,8.25,74134.0,-7.29,-10.45,-10.27,0,*6F
1484928269.99,3041,8.25,74138.0,-7.29,-10.45,-10.41,0,*6E
1484928271.18,3042,8.25,74136.5,-7.29,-10.53,-10.45,0,*6E
1484928272.41,3043,8.25,74136.8,-7.31,-10.57,-10.49,0,*6E
1484928273.64,3044,8.25,74136.5,-7.31,-10.49,-10.35,0,*6D
1484928274.87,3045,8.25,74140.8,-7.31,-10.57,-10.45,0,*64
1484928276.1,3046,8.25,74136.0,-7.31,-10.57,-10.45,0,*67
1484928277.34,3047,8.25,74136.5,-7.31,-10.57,-10.35,0,*61
1484928278.59,3048,8.25,74138.0,-7.31,-10.63,-10.57,0,*6D
1484928279.85,3049,8.25,74138.0,-7.31,-10.63,-10.49,0,*63
1484928281.13,3050,8.25,74138.0,-7.31,-10.63,-10.63,0,*63
1484928282.39,3051,8.25,74138.5,-7.31,-10.71,-10.57,0,*66
1484928283.61,3052,8.25,74138.5,-7.29,-10.79,-10.57,0,*64
1484928284.9,3053,8.25,74140.0,-7.31,-10.75,-10.63,0,*67
1484928286.18,3054,8.25,74138.3,-7.31,-10.63,-10.63,0,*67
1484928287.46,3055,8.25,74138.5,-7.31,-10.71,-10.63,0,*65
1484928288.72,3056,8.25,74138.5,-7.31,-10.63,-10.57,0,*62
1484928289.98,3057,8.25,74138.8,-7.31,-10.71,-10.53,0,*64
1484928291.23,3058,8.25,74142.3,-7.31,-10.71,-10.57,0,*6F
1484928292.51,3059,8.25,74140.3,-7.31,-10.71,-10.63,0,*69
1484928293.8,3060,8.25,74142.8,-7.31,-10.71,-10.63,0,*63
1484928295.06,3061,8.25,74142.5,-7.31,-10.63,-10.57,0,*66
1484928296.31,3062,8.25,74142.0,-7.31,-10.63,-10.57,0,*65
1484928297.55,3063,8.25,74146.3,-7.31,-10.57,-10.35,0,*67
1484928298.78,3064,8.25,74142.5,-7.29,-10.41,-10.31,0,*6A
1484928300.01,3065,8.25,74138.3,-7.31,-10.49,-10.35,0,*6E
1484928301.23,3066,8.25,74142.5,-7.31,-10.49,-10.45,0,*6A
1484928302.47,3067,8.25,74142.3,-7.31,-10.45,-10.35,0,*60
1484928303.66,3068,8.25,74138.8,-7.29,-10.49,-10.45,0,*6D
1484928304.86,3069,8.25,74138.8,-7.29,-10.45,-10.31,0,*63
1484928306.09,3070,8.25,74136.5,-7.31,-10.49,-10.45,0,*6D
1484928307.32,3071,8.25,74136.3,-7.31,-10.57,-10.45,0,*63
1484928308.56,3072,8.25,74138.0,-7.31,-10.35,-10.35,0,*63
1484928309.79,3073,8.25,74138.0,-7.31,-10.49,-10.35,0,*69
1484928310.99,3074,8.25,74136.8,-7.29,-10.53,-10.31,0,*68
1484928312.22,3075,8.25,74138.8,-7.31,-10.57,-10.49,0,*6B
1484928313.47,3076,8.25,74140.5,-7.31,-10.71,-10.57,0,*63
1484928314.7,3077,8.25,74138.3,-7.29,-10.67,-10.53,0,*68
1484928315.99,3078,8.25,74142.3,-7.31,-10.63,-10.63,0,*69
1484928317.24,3079,8.25,74140.8,-7.31,-10.71,-10.57,0,*6C
1484928318.5,3080,8.25,74138.8,-7.31,-10.63,-10.57,0,*69
1484928319.76,3081,8.25,74142.0,-7.31,-10.63,-10.49,0,*67
1484928320.96,3082,8.25,74138.8,-7.29,-10.57,-10.45,0,*66
1484928322.19,3083,8.25,74138.8,-7.31,-10.57,-10.49,0,*62
1484928323.38,3084,8.25,74142.5,-7.29,-10.53,-10.45,0,*64
1484928324.64,3085,8.25,74140.3,-7.31,-10.63,-10.49,0,*63
1484928325.89,3086,8.25,74138.8,-7.31,-10.71,-10.57,0,*6C
1484928327.15,3087,8.25,74138.5,-7.31,-10.63,-10.49,0,*61
1484928328.41,3088,8.25,74136.8,-7.31,-10.71,-10.57,0,*62
1484928329.69,3089,8.25,74140.3,-7.31,-10.71,-10.63,0,*64
1484928330.89,3090,8.25,74136.0,-7.29,-10.57,-10.45,0,*65
1484928332.15,3091,8.25,74140.5,-7.31,-10.63,-10.57,0,*69
1484928333.4,3092,8.25,74140.0,-7.31,-10.63,-10.57,0,*6A
1484928334.6,3093,8.25,74140.3,-7.29,-10.57,-10.45,0,*66
1484928335.86,3094,8.25,74142.3,-7.31,-10.63,-10.49,0,*63
1484928337.12,3095,8.25,74140.8,-7.31,-10.63,-10.49,0,*62
1484928338.35,3096,8.25,74138.0,-7.31,-10.49,-10.35,0,*62
1484928339.58,3097,8.25,74138.3,-7.35,-10.53,-10.49,0,*67
1484928340.79,3098,8.25,74138.5,-7.33,-10.45,-10.35,0,*62
1484928342.0,3099,8.25,74140.5,-7.33,-10.57,-10.35,0,*60
1484928343.23,3100,8.25,74138.8,-7.31,-10.57,-10.35,0,*63
1484928344.45,3101,8.25,74140.5,-7.33,-10.57,-10.35,0,*60
1484928345.68,3102,8.25,74142.0,-7.31,-10.57,-10.31,0,*65
1484928346.89,3103,8.25,74138.0,-7.33,-10.57,-10.35,0,*62
1484928348.15,3104,8.25,74140.0,-7.35,-10.63,-10.53,0,*64
1484928349.38,3105,8.25,74140.3,-7.33,-10.63,-10.57,0,*67
1484928350.59,3106,8.25,74138.0,-7.33,-10.85,-10.57,0,*6C
1484928351.85,3107,8.25,74138.0,-7.33,-10.75,-10.63,0,*65
1484928353.1,3108,8.25,74138.8,-7.33,-10.75,-10.71,0,*69
1484928354.33,3109,8.25,74136.0,-7.33,-10.85,-10.63,0,*64
1484928355.56,3110,8.25,74136.8,-7.33,-10.85,-10.63,0,*6C
1484928356.82,3111,8.25,74136.3,-7.33,-10.71,-10.63,0,*66
1484928358.06,3112,8.25,74138.3,-7.33,-10.71,-10.57,0,*62
1484928359.26,3113,8.25,74138.5,-7.33,-10.57,-10.45,0,*64
1484928360.52,3114,8.25,74138.3,-7.35,-10.63,-10.53,0,*65
1484928361.78,3115,8.25,74134.5,-7.35,-10.53,-10.41,0,*64
1484928362.99,3116,8.25,74138.0,-7.33,-10.49,-10.35,0,*69
1484928364.2,3117,8.25,74140.5,-7.33,-10.49,-10.35,0,*68
1484928365.41,3118,8.25,74140.3,-7.33,-10.49,-10.35,0,*67
1484928366.62,3119,8.25,74138.5,-7.33,-10.49,-10.35,0,*66
1484928367.85,3120,8.25,74138.5,-7.31,-10.49,-10.35,0,*6E
1484928369.08,3121,8.25,74138.0,-7.31,-10.57,-10.35,0,*60
1484928370.32,3122,8.25,74142.8,-7.31,-10.35,-10.23,0,*60
1484928371.55,3123,8.25,74142.3,-7.31,-10.35,-10.31,0,*62
1484928372.78,3124,8.25,74138.3,-7.31,-10.57,-10.45,0,*62
1484928374.01,3125,8.25,74142.3,-7.31,-10.49,-10.35,0,*6B
1484928375.25,3126,8.25,74142.0,-7.31,-10.35,-10.35,0,*63
1484928376.49,3127,8.25,74138.8,-7.31,-10.35,-10.31,0,*66
1484928377.71,3128,8.25,74140.0,-7.31,-10.45,-10.31,0,*6E
1484928378.95,3129,8.25,74144.5,-7.31,-10.35,-10.31,0,*68
1484928380.15,3130,8.25,74140.0,-7.29,-10.31,-10.19,0,*67
1484928381.39,3131,8.25,74140.5,-7.29,-10.41,-10.27,0,*6C
1484928382.62,3132,8.25,74146.8,-7.29,-10.41,-10.19,0,*62
1484928383.84,3133,8.25,74146.0,-7.31,-10.45,-10.31,0,*64
1484928385.08,3134,8.25,74142.8,-7.31,-10.57,-10.35,0,*64
1484928386.28,3135,8.25,74142.0,-7.29,-10.57,-10.49,0,*67
1484928387.51,3136,8.25,74138.8,-7.29,-10.67,-10.53,0,*6C
1484928388.71,3137,8.25,74144.0,-7.29,-10.57,-10.53,0,*6E
1484928389.97,3138,8.25,74142.0,-7.31,-10.63,-10.49,0,*64
1484928391.22,3139,8.25,74142.3,-7.31,-10.63,-10.57,0,*6A
1484928392.45,3140,8.25,74142.5,-7.29,-10.71,-10.57,0,*6E
1484928393.73,3141,8.25,74142.5,-7.31,-10.71,-10.63,0,*61
1484928394.93,3142,8.25,74140.3,-7.29,-10.57,-10.53,0,*6C
1484928396.19,3143,8.25,74140.0,-7.31,-10.63,-10.57,0,*67
1484928397.39,3144,8.25,74142.0,-7.29,-10.57,-10.45,0,*6D
1484928398.62,3145,8.25,74144.8,-7.29,-10.67,-10.53,0,*68
1484928399.82,3146,8.25,74144.5,-7.29,-10.57,-10.53,0,*68
1484928401.05,3147,8.25,74142.8,-7.31,-10.57,-10.45,0,*67
1484928402.28,3148,8.25,74140.8,-7.31,-10.57,-10.49,0,*64
1484928403.51,3149,8.25,74142.8,-7.31,-10.57,-10.45,0,*69
1484928404.71,3150,8.25,74146.3,-7.29,-10.57,-10.35,0,*6F
1484928405.94,3151,8.25,74146.3,-7.31,-10.49,-10.45,0,*6F
1484928407.16,3152,8.25,74144.0,-7.31,-10.49,-10.45,0,*6C
1484928408.36,3153,8.25,74142.3,-7.29,-10.45,-10.31,0,*6B
1484928409.59,3154,8.25,74144.8,-7.31,-10.57,-10.45,0,*65
1484928410.82,3155,8.25,74142.8,-7.31,-10.57,-10.45,0,*64
1484928412.05,3156,8.25,74146.0,-7.31,-10.57,-10.57,0,*64
1484928413.25,3157,8.25,74146.0,-7.29,-10.53,-10.45,0,*6B
1484928414.48,3158,8.25,74144.5,-7.29,-10.67,-10.53,0,*64
1484928415.71,3159,8.25,74146.5,-7.29,-10.67,-10.57,0,*61
1484928416.99,3160,8.25,74150.0,-7.31,-10.71,-10.63,0,*62
1484928418.25,3161,8.25,74144.5,-7.31,-10.63,-10.57,0,*67
1484928419.48,3162,8.25,74146.3,-7.31,-10.57,-10.49,0,*6C
1484928420.7,3163,8.25,74150.5,-7.31,-10.57,-10.49,0,*6D
1484928421.94,3164,8.25,74146.3,-7.31,-10.35,-10.35,0,*65
1484928423.17,3165,8.25,74146.8,-7.29,-10.41,-10.19,0,*60
1484928424.4,3166,8.25,74146.3,-7.31,-10.45,-10.23,0,*67
1484928425.63,3167,8.25,74146.3,-7.31,-10.35,-10.23,0,*61
1484928426.87,3168,8.25,74144.3,-7.31,-10.31,-10.19,0,*63
1484928428.09,3169,8.25,74146.8,-7.31,-10.31,-10.09,0,*63
1484928429.33,3170,8.25,74146.0,-7.31,-10.31,-10.19,0,*6A
1484928430.56,3171,8.25,74146.3,-7.31,-10.35,-10.09,0,*6E
1484928431.78,3172,8.25,74146.8,-7.31,-10.31,-10.05,0,*65
1484928433.01,3173,8.25,74144.8,-7.31,-10.31,-10.05,0,*64
1484928434.24,3174,8.25,74150.5,-7.31,-10.35,-10.05,0,*67
1484928435.47,3175,8.25,74146.8,-7.31,-10.45,-10.09,0,*6D
1484928436.7,3176,8.25,74144.5,-7.31,-10.35,-10.09,0,*69
1484928437.93,3177,8.25,74142.3,-7.31,-10.31,-10.19,0,*6D
1484928439.16,3178,8.25,74146.5,-7.31,-10.31,-10.09,0,*63
1484928440.39,3179,8.25,74144.3,-7.31,-10.31,-10.05,0,*6E
1484928441.62,3180,8.25,74146.3,-7.31,-10.45,-10.19,0,*66
1484928442.85,3181,8.25,74148.3,-7.31,-10.35,-10.23,0,*69
1484928444.08,3182,8.25,74148.5,-7.31,-10.49,-10.31,0,*62
1484928445.3,3183,8.25,74150.3,-7.31,-10.45,-10.23,0,*6C
1484928446.53,3184,8.25,74142.0,-7.31,-10.45,-10.23,0,*6B
1484928447.76,3185,8.25,74146.8,-7.31,-10.31,-10.23,0,*69
1484928448.98,3186,8.25,74146.8,-7.31,-10.31,-10.23,0,*6A
1484928450.2,3187,8.25,74144.5,-7.33,-10.31,-10.19,0,*60
1484928451.41,3188,8.25,74142.8,-7.33,-10.31,-10.19,0,*6F
1484928452.62,3189,8.25,74142.5,-7.33,-10.31,-10.19,0,*6E
1484928453.83,3190,8.25,74144.0,-7.33,-10.35,-10.23,0,*6B
1484928455.04,3191,8.25,74142.3,-7.33,-10.35,-10.19,0,*63
1484928456.24,3192,8.25,74142.0,-7.33,-10.23,-9.97,0,*59
1484928457.43,3193,8.25,74146.0,-7.33,-10.09,-9.89,0,*5F
1484928458.64,3194,8.25,74144.5,-7.31,-10.05,-9.89,0,*56
1484928459.83,3195,8.25,74144.3,-7.33,-9.97,-9.89,0,*66
1484928461.02,3196,8.25,74148.5,-7.33,-9.93,-9.89,0,*61
1484928462.2,3197,8.25,74146.5,-7.33,-9.89,-9.67,0,*6B
1484928463.42,3198,8.25,74146.8,-7.31,-9.93,-9.79,0,*62
1484928464.65,3199,8.25,74142.3,-7.31,-9.83,-9.67,0,*6D
1484928465.9,3200,8.25,74142.0,-7.31,-9.75,-9.53,0,*60
1484928467.14,3201,8.25,74140.8,-7.33,-9.53,-9.49,0,*6C
1484928468.4,3202,8.25,74136.5,-7.31,-9.49,-9.37,0,*6F
1484928469.68,3203,8.25,74142.3,-7.31,-9.41,-9.37,0,*66
1484928470.94,3204,8.25,74138.3,-7.31,-9.49,-9.41,0,*68
1484928472.15,3205,8.25,74138.8,-7.29,-9.45,-9.31,0,*6B
1484928473.33,3206,8.25,74136.0,-7.29,-9.31,-9.23,0,*68
1484928474.58,3207,8.25,74138.8,-7.31,-9.23,-9.11,0,*62
1484928475.82,3208,8.25,74146.8,-7.31,-9.27,-9.11,0,*69
1484928477.03,3209,8.25,74144.3,-7.29,-9.23,-9.11,0,*65
1484928478.22,3210,8.25,74140.8,-7.29,-9.27,-9.23,0,*68
1484928479.4,3211,8.25,74140.8,-7.29,-9.23,-9.19,0,*64
1484928480.62,3212,8.25,74144.5,-7.29,-9.19,-9.11,0,*66
1484928481.81,3213,8.25,74142.3,-7.29,-9.19,-9.05,0,*62
1484928482.99,3214,8.25,74142.5,-7.29,-9.31,-9.23,0,*6B
1484928484.23,3215,8.25,74140.3,-7.29,-9.45,-9.45,0,*69
1484928485.44,3216,8.25,74144.3,-7.29,-9.71,-9.57,0,*6E
1484928486.63,3217,8.25,74144.3,-7.29,-9.75,-9.75,0,*6B
1484928487.84,3218,8.25,74146.8,-7.29,-9.93,-9.83,0,*65
1484928489.03,3219,8.25,74140.3,-7.29,-10.01,-9.89,0,*5D
1484928490.23,3220,8.25,74138.8,-7.29,-10.15,-10.01,0,*6A
1484928491.44,3221,8.25,74140.5,-7.29,-10.15,-10.15,0,*6E
1484928492.67,3222,8.25,74140.0,-7.29,-10.41,-10.19,0,*60
1484928493.9,3223,8.25,74140.5,-7.29,-10.41,-10.15,0,*6D
1484928495.11,3224,8.25,74142.5,-7.29,-10.31,-10.01,0,*68
1484928496.3,3225,8.25,74148.0,-7.29,-10.19,-9.93,0,*50
1484928497.52,3226,8.25,74144.0,-7.29,-10.19,-9.83,0,*52
1484928498.72,3227,8.25,74144.0,-7.29,-10.15,-9.89,0,*55
1484928499.94,3228,8.25,74146.5,-7.31,-10.23,-9.93,0,*5D
1484928501.14,3229,8.25,74146.0,-7.29,-10.15,-9.89,0,*5B
1484928502.36,3230,8.25,74144.5,-7.31,-10.19,-9.93,0,*5D
1484928503.58,3231,8.25,74138.0,-7.31,-10.09,-9.97,0,*59
1484928504.79,3232,8.25,74136.8,-7.31,-9.93,-9.75,0,*6D
1484928506.0,3233,8.25,74138.8,-7.31,-9.89,-9.67,0,*64
1484928507.24,3234,8.25,74140.0,-7.31,-9.71,-9.61,0,*62
1484928508.46,3235,8.25,74140.0,-7.31,-9.79,-9.67,0,*6D
1484928509.65,3236,8.25,74142.5,-7.29,-9.75,-9.75,0,*68
1484928510.87,3237,8.25,74136.0,-7.31,-9.79,-9.79,0,*60
1484928512.04,3238,8.25,74142.0,-7.29,-9.89,-9.89,0,*66